Погода в Волжском

Россия / Астраханская область     46°38′57″N   47°51′37″E
темп.,
°C
ветер,
м/с
пор.,
м/с
влажн.,
%
обл.,
%
осадки,
мм/ч
давл.,
гПа
погр.,
м
17 сентября, пт
пт1701:00+14ссв5104056 0.0 1016330
04:00+12ссв4947100 0.0 1017272
07:00+11ссв4850100 0.0 1018315
10:00+15ссв5640100 0.0 1019862
13:00+19ссв443086 0.0 10181332
16:00+20ссв332660 0.0 10171601
19:00+17ссв33340 0.0 101724
22:00+14всв22412 0.0 101816
18 сентября, сб
сб1801:00+13вюв33433 0.0 101822
04:00+13вюв334267 0.0 101852
07:00+12вюв23445 0.0 101821
10:00+19юв22295 0.0 1019842
13:00+22вюв21232 0.0 10182022
16:00+23в222132 0.0 10172375
19:00+19в4827100 0.0 1018158
22:00+15ю474757 0.0 1019152
19 сентября, вс
вс1901:00+14ююв345464 0.0 101977
04:00+13юв34575 0.0 102043
07:00+12вюв46585 0.0 1020105
10:00+20вюв7839100 0.0 10211205
13:00+23юв88285 0.0 10201940
16:00+23юв8830100 0.0 10191845
19:00+18вюв71046100 0.0 1020696
22:00+16вюв51257100 0.0 1020424
20 сентября, пн
пн2001:00+16вюв6144793 0.0 1019442
04:00+17вюв71346100 0.0 1019570
07:00+17вюв8144578 0.0 1018539
10:00+21вюв91132100 0.0 1018820
13:00+24вюв91026100 0.0 10171278
16:00+24юв8834100 0.0 10161343
19:00+20юв695335 0.0 1017346
22:00+16вюв4872100 0.0 1017188
21 сентября, вт
вт2101:00+16вюв368164 0.0 1017119
04:00+15вюв3483100 0.0 101670
07:00+15в3486100 0.0 101681
10:00+22юв3454100 0.0 1016443
13:00+26юв343399 0.1 10151103
16:00+27ююв5534100 0.1 10151336
19:00+23юв693773 0.0 1015399
22:00+18юв475327 0.0 1016147